DW2659 Weather Reports


time (UTC)temp
C
wind
direction
speed
KPH
gust
KPH
rain 1hr
cm
rain 24hr
cm
rain mn
cm
humidity
%
barometer
mb
20260505151904 21 239 3.2 8.0 0.00 0.00 0.00 52 1015.1
20260505151403 21 228 4.8 9.7 0.00 0.00 0.00 53 1015.1
20260505150904 20 259 3.2 16.1 0.00 0.00 0.00 53 1015.1
20260505150405 20 256 6.4 14.5 0.00 0.00 0.00 51 1015.1
20260505124904 13 175 3.2 4.8 0.00 0.00 0.00 70 1014.7
20260505123904 13 174 1.6 4.8 0.00 0.00 0.00 74 1014.5
20260505123403 12 142 0.0 0.0 0.00 0.00 0.00 76 1014.5
20260505122905 12 142 0.0 0.0 0.00 0.00 0.00 76 1014.5
20260505122403 12 142 0.0 1.6 0.00 0.00 0.00 76 1014.5
20260505121904 12 142 0.0 1.6 0.00 0.00 0.00 78 1014.5
20260505121405 11 142 0.0 0.0 0.00 0.00 0.00 80 1014.4
20260505120903 11 142 0.0 1.6 0.00 0.00 0.00 80 1014.4
20260505115905 11 142 0.0 1.6 0.00 0.00 0.00 82 1014.2
20260505115403 10 142 1.6 3.2 0.00 0.00 0.00 83 1014.2
20260505114405 10 142 0.0 1.6 0.00 0.00 0.00 84 1014.0
20260505113904 10 128 0.0 0.0 0.00 0.00 0.00 83 1014.0
20260505113404 10 128 0.0 1.6 0.00 0.00 0.00 84 1014.0
20260505112905 10 128 0.0 1.6 0.00 0.00 0.00 84 1014.0
20260505111904 9 128 0.0 0.0 0.00 0.00 0.00 83 1013.5
20260505111405 9 128 0.0 0.0 0.00 0.00 0.00 83 1013.5
20260505110904 9 128 0.0 0.0 0.00 0.00 0.00 83 1013.5
20260505110404 9 128 0.0 1.6 0.00 0.00 0.00 83 1013.5
20260505101904 9 204 0.0 3.2 0.00 0.00 0.00 83 1013.2
20260505101405 9 187 0.0 0.0 0.00 0.00 0.00 83 1013.2
20260505095905 9 187 0.0 0.0 0.00 0.00 0.00 83 1013.3
20260505095404 9 187 0.0 3.2 0.00 0.00 0.00 83 1013.3
20260505094904 9 125 0.0 1.6 0.00 0.00 0.00 84 1013.4
20260505094404 9 125 0.0 1.6 0.00 0.00 0.00 84 1013.4
20260505093904 9 125 1.6 3.2 0.00 0.00 0.00 84 1013.4
20260505091904 9 196 0.0 0.0 0.00 0.00 0.00 83 1013.4
20260505091405 9 196 0.0 0.0 0.00 0.00 0.00 83 1013.4
20260505090904 9 196 0.0 0.0 0.00 0.00 0.00 83 1013.4
20260505090404 9 196 0.0 0.0 0.00 0.00 0.00 83 1013.4
20260505085905 9 196 0.0 0.0 0.00 0.00 0.00 83 1013.1
20260505085403 9 196 0.0 0.0 0.00 0.00 0.00 83 1013.1
20260505084904 10 196 0.0 0.0 0.00 0.00 0.00 82 1013.1
20260505084405 10 196 0.0 0.0 0.00 0.00 0.00 82 1013.5
20260505083904 10 196 0.0 0.0 0.00 0.00 0.00 82 1013.5
20260505083404 10 196 0.0 0.0 0.00 0.00 0.00 82 1013.5
20260505082905 10 196 0.0 0.0 0.00 0.00 0.00 82 1013.5
20260505082404 10 196 0.0 0.0 0.00 0.00 0.00 82 1013.5
20260505081405 10 196 0.0 0.0 0.00 0.00 0.00 82 1013.4
20260505080904 10 196 0.0 0.0 0.00 0.00 0.00 81 1013.4
20260505080404 10 196 0.0 0.0 0.00 0.00 0.00 81 1013.4
20260505075905 10 196 0.0 0.0 0.00 0.00 0.00 81 1013.4
20260505075404 10 196 0.0 0.0 0.00 0.00 0.00 81 1013.4
20260505074904 10 196 0.0 0.0 0.00 0.00 0.00 81 1013.4
20260505074405 10 196 0.0 0.0 0.00 0.00 0.00 81 1013.4
20260505073903 10 196 0.0 0.0 0.00 0.00 0.00 81 1013.4
20260505073404 10 196 0.0 0.0 0.00 0.00 0.00 80 1013.4
20260505072905 11 196 0.0 1.6 0.00 0.00 0.00 80 1013.5
20260505072404 11 196 0.0 1.6 0.00 0.00 0.00 80 1013.5
20260505071903 11 196 0.0 0.0 0.00 0.00 0.00 80 1013.5
20260505070904 11 196 0.0 0.0 0.00 0.00 0.00 79 1013.4
20260505070404 11 196 0.0 0.0 0.00 0.00 0.00 79 1013.4
20260505065905 11 196 0.0 0.0 0.00 0.00 0.00 78 1013.4
20260505065404 11 196 0.0 0.0 0.00 0.00 0.00 78 1013.4
20260505064404 11 196 0.0 0.0 0.00 0.00 0.00 76 1013.4
20260505063904 11 196 0.0 0.0 0.00 0.00 0.00 76 1013.5
20260505063405 12 196 0.0 0.0 0.00 0.00 0.00 76 1013.5
20260505062904 12 196 0.0 0.0 0.00 0.00 0.00 76 1013.6
20260505062404 12 196 0.0 0.0 0.00 0.00 0.00 76 1013.5
20260505061905 12 196 0.0 0.0 0.00 0.00 0.00 75 1013.5
20260505061405 12 196 0.0 0.0 0.00 0.00 0.00 75 1013.5
20260505060904 12 196 0.0 0.0 0.00 0.00 0.00 74 1013.5
20260505060405 12 196 0.0 0.0 0.00 0.00 0.00 74 1013.5
20260505055904 12 196 0.0 0.0 0.00 0.00 0.00 74 1013.5
20260505054905 13 196 0.0 0.0 0.00 0.00 0.00 75 1013.5
20260505054403 13 196 0.0 0.0 0.00 0.00 0.00 74 1013.5
20260505053904 13 196 0.0 0.0 0.00 0.00 0.00 73 1013.5
20260505053405 13 196 0.0 0.0 0.00 0.00 0.00 73 1013.5
20260505052904 13 196 0.0 0.0 0.00 0.00 0.00 72 1013.4
20260505052404 13 196 0.0 1.6 0.00 0.00 0.00 71 1013.4
20260505051905 13 196 1.6 1.6 0.00 0.00 0.00 70 1013.4
20260505050904 14 212 0.0 4.8 0.00 0.00 0.00 69 1013.4
20260505050409 14 249 1.6 9.7 0.00 0.00 0.00 65 1013.4
20260505041403 12 281 0.0 0.0 0.00 0.00 0.00 79 1013.4
20260505040902 12 270 0.0 0.0 0.00 0.00 0.00 79 1013.4
20260505040404 12 270 0.0 0.0 0.00 0.00 0.00 78 1013.4
20260505035903 12 270 0.0 0.0 0.00 0.00 0.00 78 1013.4
20260505035403 12 270 0.0 1.6 0.00 0.00 0.00 78 1013.4
20260505034903 12 270 0.0 1.6 0.00 0.00 0.00 78 1013.4
20260505033903 12 270 0.0 1.6 0.00 0.00 0.00 78 1013.4
20260505032403 13 269 0.0 1.6 0.00 0.00 0.00 76 1013.3
20260505031403 13 270 0.0 0.0 0.00 0.00 0.00 75 1013.4
20260505030903 13 270 0.0 0.0 0.00 0.00 0.00 74 1013.4
20260505030404 13 270 0.0 0.0 0.00 0.00 0.00 74 1013.4
20260505025902 13 269 0.0 1.6 0.00 0.00 0.00 74 1013.5
20260505025403 13 269 0.0 0.0 0.00 0.00 0.00 73 1013.5
20260505024904 13 269 0.0 0.0 0.00 0.00 0.00 72 1013.5
20260505023902 14 269 0.0 0.0 0.00 0.00 0.00 71 1013.5
20260505023404 14 270 0.0 0.0 0.00 0.00 0.00 70 1013.5
20260505022903 14 270 0.0 0.0 0.00 0.00 0.00 70 1013.4
20260505022403 14 269 0.0 0.0 0.00 0.00 0.00 70 1013.4
20260505021903 14 269 0.0 0.0 0.00 0.00 0.00 69 1013.4
20260505021403 15 269 0.0 0.0 0.00 0.00 0.00 69 1013.4
20260505015903 15 269 0.0 0.0 0.00 0.00 0.00 66 1013.4
20260505015403 15 269 0.0 0.0 0.00 0.00 0.00 65 1013.4
20260505014904 16 269 0.0 0.0 0.00 0.00 0.00 65 1013.0
20260505014402 16 270 0.0 0.0 0.00 0.00 0.00 64 1013.0
20260505013902 16 269 0.0 0.0 0.00 0.00 0.00 63 1013.0
20260505013404 16 269 0.0 0.0 0.00 0.00 0.00 63 1013.0
20260505012902 16 270 0.0 0.0 0.00 0.00 0.00 62 1012.7
20260505012403 16 269 0.0 0.0 0.00 0.00 0.00 62 1012.7
20260505011904 17 270 0.0 0.0 0.00 0.00 0.00 61 1012.7
20260505011403 17 270 0.0 0.0 0.00 0.00 0.00 60 1012.7
20260505005902 17 269 0.0 0.0 0.00 0.00 0.00 57 1012.6
20260505005402 18 270 0.0 0.0 0.00 0.00 0.00 56 1012.6
20260505004904 18 269 0.0 0.0 0.00 0.00 0.00 55 1012.6
20260505004403 18 269 0.0 0.0 0.00 0.00 0.00 54 1012.6
20260505002903 19 269 0.0 0.0 0.00 0.00 0.00 52 1012.7
20260505002403 20 270 0.0 0.0 0.00 0.00 0.00 52 1012.7
20260505001904 20 270 0.0 0.0 0.00 0.00 0.00 51 1012.5
20260505001403 20 269 0.0 0.0 0.00 0.00 0.00 50 1012.6
20260505000903 20 269 0.0 0.0 0.00 0.00 0.00 49 1012.6
20260505000405 20 270 0.0 0.0 0.00 0.00 0.00 50 1012.6
20260504235902 21 269 0.0 0.0 0.00 0.00 0.00 48 1012.6
20260504235403 21 270 0.0 1.6 0.00 0.00 0.00 49 1012.6
20260504234904 21 270 0.0 1.6 0.00 0.00 0.00 47 1012.6
20260504234403 21 270 0.0 1.6 0.00 0.00 0.00 46 1012.7
20260504233404 21 270 1.6 3.2 0.00 0.00 0.00 42 1012.7
20260504232902 22 256 1.6 4.8 0.00 0.00 0.00 42 1012.7
20260504232403 22 263 1.6 1.6 0.00 0.00 0.00 41 1012.7
20260504231904 22 270 0.0 3.2 0.00 0.00 0.00 42 1012.7
20260504230903 23 259 1.6 4.8 0.00 0.00 0.00 37 1012.8
20260504230404 23 243 3.2 4.8 0.00 0.00 0.00 35 1012.8
20260504225903 23 199 3.2 8.0 0.00 0.00 0.00 34 1012.7
20260504225403 23 156 3.2 11.3 0.00 0.00 0.00 33 1012.8
20260504224904 23 185 4.8 9.7 0.00 0.00 0.00 33 1012.8
20260504224403 23 251 6.4 12.9 0.00 0.00 0.00 33 1012.9
20260504223903 23 253 8.0 12.9 0.00 0.00 0.00 33 1012.9
20260504223404 24 225 8.0 19.3 0.00 0.00 0.00 36 1012.9
20260504222903 24 215 4.8 14.5 0.00 0.00 0.00 37 1012.6
20260504222403 24 261 4.8 16.1 0.00 0.00 0.00 37 1012.6
20260504221904 24 188 4.8 14.5 0.00 0.00 0.00 37 1012.6
20260504221403 24 207 3.2 11.3 0.00 0.00 0.00 38 1012.6
20260504220903 24 251 3.2 11.3 0.00 0.00 0.00 38 1012.6
20260504220404 24 187 6.4 12.9 0.00 0.00 0.00 36 1012.6
20260504215903 25 225 8.0 14.5 0.00 0.00 0.00 37 1012.6
20260504215403 25 186 8.0 16.1 0.00 0.00 0.00 35 1012.6
20260504214904 25 234 8.0 12.9 0.00 0.00 0.00 36 1012.5
20260504214403 25 153 4.8 12.9 0.00 0.00 0.00 36 1012.5
20260504213903 25 100 1.6 9.7 0.00 0.00 0.00 35 1012.5
20260504213404 25 241 3.2 11.3 0.00 0.00 0.00 34 1012.7
20260504212903 25 241 4.8 14.5 0.00 0.00 0.00 34 1012.7
20260504212403 25 227 4.8 14.5 0.00 0.00 0.00 33 1012.7
20260504205903 25 250 6.4 12.9 0.00 0.00 0.00 34 1012.8
20260504205403 25 164 3.2 8.0 0.00 0.00 0.00 36 1012.8
20260504204904 25 210 4.8 11.3 0.00 0.00 0.00 35 1012.8
20260504204406 25 249 4.8 11.3 0.00 0.00 0.00 37 1012.8
20260504203903 25 238 3.2 11.3 0.00 0.00 0.00 38 1012.8
20260504203403 25 260 6.4 11.3 0.00 0.00 0.00 37 1013.2
20260504202904 25 256 4.8 9.7 0.00 0.00 0.00 36 1013.2
20260504202403 25 267 1.6 4.8 0.00 0.00 0.00 37 1013.2
20260504201404 25 244 8.0 19.3 0.00 0.00 0.00 37 1013.5
20260504200903 25 196 8.0 14.5 0.00 0.00 0.00 33 1013.5
20260504200403 25 227 6.4 11.3 0.00 0.00 0.00 38 1013.5
20260504195403 25 214 1.6 4.8 0.00 0.00 0.00 41 1013.5
20260504194903 25 231 4.8 9.7 0.00 0.00 0.00 39 1013.5
20260504193903 25 209 4.8 11.3 0.00 0.00 0.00 38 1013.6
20260504193403 25 238 4.8 11.3 0.00 0.00 0.00 37 1014.0
20260504192904 25 247 4.8 12.9 0.00 0.00 0.00 39 1014.0
20260504192403 25 269 3.2 11.3 0.00 0.00 0.00 41 1014.0
20260504191904 25 244 8.0 16.1 0.00 0.00 0.00 38 1014.0
20260504191405 25 285 4.8 11.3 0.00 0.00 0.00 37 1014.4
20260504190903 25 267 4.8 12.9 0.00 0.00 0.00 40 1014.4
20260504190403 25 245 4.8 12.9 0.00 0.00 0.00 39 1014.4
20260504185904 25 181 8.0 12.9 0.00 0.00 0.00 38 1014.4
20260504185403 25 219 4.8 11.3 0.00 0.00 0.00 40 1014.4
20260504184903 25 250 6.4 11.3 0.00 0.00 0.00 39 1014.4
20260504184405 25 30 3.2 11.3 0.00 0.00 0.00 40 1014.5
20260504183903 24 244 3.2 11.3 0.00 0.00 0.00 43 1014.4
20260504183403 24 260 4.8 12.9 0.00 0.00 0.00 40 1014.4
20260504182904 25 224 1.6 12.9 0.00 0.00 0.00 40 1014.6
20260504182403 25 216 6.4 12.9 0.00 0.00 0.00 40 1014.7
20260504181903 25 209 4.8 9.7 0.00 0.00 0.00 38 1014.7
20260504181404 25 217 3.2 11.3 0.00 0.00 0.00 43 1014.8
20260504180904 24 104 8.0 19.3 0.00 0.00 0.00 41 1014.8
20260504175904 24 153 1.6 8.0 0.00 0.00 0.00 42 1015.1
20260504175403 23 175 4.8 8.0 0.00 0.00 0.00 41 1015.1
20260504174405 23 198 3.2 11.3 0.00 0.00 0.00 41 1015.4
20260504173903 23 239 4.8 9.7 0.00 0.00 0.00 42 1015.4
20260504173403 23 230 4.8 9.7 0.00 0.00 0.00 42 1015.4
20260504172904 23 150 3.2 12.9 0.00 0.00 0.00 42 1016.3
20260504172403 23 242 6.4 14.5 0.00 0.00 0.00 43 1016.3
20260504171405 23 230 4.8 11.3 0.00 0.00 0.00 40 1016.3
20260504170903 23 267 3.2 11.3 0.00 0.00 0.00 43 1016.3
20260504170403 23 266 4.8 12.9 0.00 0.00 0.00 41 1016.3
20260504160403 21 253 1.6 4.8 0.00 0.00 0.00 43 1016.4